Flag for Canada Weather past 2 weeks in Thunder Bay, Ontario, Canada

Now
34 °F

Light snow. Overcast.


Feels Like: 28 °F
Forecast: 28 / 36 °F
Wind: 7 mph from Northwest

Location: Thunder Bay

Current Time: Apr 21, 2015 at 5:58:51 AM

Latest Report: Apr 21, 2015 at 5:00 AM


Visibility: 5 mi

Pressure: 29.23 "Hg

Humidity: 93%

Dew point: 32 °F

Location of Thunder BayLocation

Historic Weather in Thunder Bay — Graph

°F

Thunder Bay temperature yesterday

Maximum temperature yesterday: 39 °F (at 1:00 PM)
Minimum temperature yesterday: 34 °F (at 11:00 PM)
Average temperature yesterday: 37 °F

Past Weeks' High & Low Weather Summary

 TemperatureHumidityPressure
High70 °F (Apr 12, 6:00 PM)100% (Apr 8, 10:00 AM)30.48 "Hg (Apr 8, 10:00 AM)
Low12 °F (Apr 6, 7:00 AM)13% (Apr 14, 4:00 PM)29.21 "Hg (Apr 20, 4:00 PM)
Average41 °F66%29.98 "Hg
* Reported Apr 6 5:00 AM — Apr 21 5:00 AM, Thunder Bay, Weather by CustomWeather, © 2015

Note: Actual official high and low records may vary slightly from our data, if they occured in-between our weather recording intervals... More about our weather records

Advertising

Thunder Bay weather history for previous 24 hours

 ConditionsComfort  
Time TempWeatherWind HumidityBarometerVisibility
5:00 AM
Tue, Apr 21
34 °FLight snow. Overcast.7 mph93%29.23 "Hg5 mi
4:00 AM34 °FLight rain. Overcast.6 mph93%29.22 "Hg15 mi
3:00 AM34 °FLight rain. Overcast.7 mph100%29.23 "Hg15 mi
2:00 AM34 °FLight rain. Overcast.8 mph100%29.23 "Hg15 mi
1:00 AM34 °FLight rain. Overcast.8 mph100%29.23 "Hg15 mi
12:00 AM34 °FLight rain. Overcast.9 mph100%29.23 "Hg15 mi
11:00 PM
Mon, Apr 20
34 °FLight rain. Overcast.10 mph100%29.23 "Hg10 mi
10:00 PM36 °FLight rain. Overcast.10 mph93%29.24 "Hg10 mi
9:00 PM36 °FLight rain. More clouds than sun.9 mph93%29.24 "Hg10 mi
8:00 PM36 °FLight rain. Overcast.14 mph93%29.23 "Hg10 mi
7:00 PM37 °FLight rain. More clouds than sun.15 mph93%29.22 "Hg10 mi
6:00 PM39 °FMore clouds than sun.13 mph87%29.22 "Hg8 mi
5:00 PM39 °FLight rain. More clouds than sun.15 mph93%29.21 "Hg10 mi
4:00 PM37 °FLight rain. More clouds than sun.15 mph93%29.21 "Hg10 mi
3:00 PM37 °FLight rain. Overcast.16 mph93%29.21 "Hg10 mi
2:00 PM39 °FLight rain. Mostly cloudy.15 mph93%29.21 "Hg15 mi
1:00 PM39 °FLight rain. More clouds than sun.10 mph93%29.24 "Hg15 mi
12:00 PM37 °FLight rain. Mostly cloudy.10 mph100%29.26 "Hg10 mi
11:00 AM37 °FLight rain. Mostly cloudy.5 mph93%29.28 "Hg15 mi
10:00 AM37 °FLight rain. Overcast.8 mph93%29.30 "Hg20 mi
9:00 AM37 °FLight rain. Overcast.5 mph93%29.34 "Hg20 mi
8:00 AM36 °FLight rain. Fog.7 mph100%29.35 "Hg6 mi
7:00 AM36 °FLight rain. Fog.2 mph100%29.37 "Hg6 mi
6:00 AM36 °FLight rain. Mostly cloudy.2 mph100%29.39 "Hg10 mi
5:00 AM36 °FLight rain. Low clouds.2 mph100%29.42 "Hg10 mi
Weather by CustomWeather, © 2015

See weather overviewHow to use our weather pages